Location: Ceske Budejovice
(48.9830°N, 14.4670°E)
Time: 04:59:13
(UTC+02:00)

ARIANE 6 FM1 Upper Stage - Visible Passes

Search period start: 08 June 2026 00:00
Search period end: 18 June 2026 00:00
Orbit: 528 x 599 km, 62.0° (Epoch: 7 June)

Date Brightness Start Highest point End Pass type
(mag) Time Alt. Az. Time Alt. Az. Time Alt. Az.
8 Jun 3.2 03:21:21 16° SSW 03:24:23 48° SE 03:28:21 10° NE visible
9 Jun 2.8 03:20:38 18° SSW 03:23:41 67° SE 03:27:46 10° NE visible
10 Jun 4.8 01:43:54 13° SE 01:44:36 14° ESE 01:46:45 10° E visible
10 Jun 2.6 03:19:51 17° SW 03:23:01 89° NW 03:27:08 10° NE visible
11 Jun 4.3 01:43:05 19° SE 01:43:46 19° ESE 01:46:45 10° ENE visible
11 Jun 2.9 03:19:01 15° SW 03:22:22 67° NW 03:26:28 10° NE visible
12 Jun 3.9 01:42:11 25° SE 01:42:58 26° ESE 01:46:26 10° ENE visible
12 Jun 3.3 03:18:08 13° WSW 03:21:45 50° NW 03:25:45 10° NE visible
13 Jun 3.4 01:41:14 32° SSE 01:42:11 36° SE 01:45:59 10° ENE visible
13 Jun 3.7 03:17:14 10° WSW 03:21:09 39° NW 03:25:01 10° NE visible
14 Jun 2.9 01:40:14 37° S 01:41:26 51° SE 01:45:26 10° NE visible
14 Jun 4.2 03:16:51 10° W 03:20:34 31° NNW 03:24:15 10° NNE visible
15 Jun 2.6 01:39:09 37° SSW 01:40:42 71° SE 01:44:48 10° NE visible
15 Jun 4.5 03:16:32 10° W 03:20:02 26° NNW 03:23:29 10° NNE visible
16 Jun 4.6 00:02:04 14° ESE 00:02:04 14° ESE 00:03:53 10° E visible
16 Jun 2.6 01:38:00 30° SW 01:40:00 85° NW 01:44:07 10° NE visible
16 Jun 4.8 03:16:15 10° WNW 03:19:30 22° NNW 03:22:43 10° NNE visible
17 Jun 4.2 00:00:49 20° ESE 00:00:49 20° ESE 00:03:47 10° ENE visible
17 Jun 3.0 01:36:44 22° WSW 01:39:18 64° NW 01:43:24 10° NE visible
17 Jun 5.1 03:16:01 10° WNW 03:19:00 19° NNW 03:21:57 10° NNE visible
